Weather History for South St. Paul, MN

Change the Weather History Date:

Monday, March 11, 2013

  Actual Average (KMSP) Record (KMSP)
Temperature  
Mean Temperature 29 °F 30 °F  
Max Temperature 32 °F 39 °F 66 °F (2012)
Min Temperature 25 °F 22 °F -27 °F (1948)
Degree Days  
Heating Degree Days 36 35  
Month to date heating degree days 404  
Since 1 July heating degree days 6194  
Cooling Degree Days 0 0  
Month to date cooling degree days 0  
Year to date cooling degree days 0  
Moisture  
Dew Point 23 °F    
Average Humidity 76    
Maximum Humidity 86    
Minimum Humidity 64    
Precipitation  
Precipitation 0.00 in 0.05 in 1.30 in (1990)
Month to date precipitation 0.57  
Year to date precipitation 2.24  
Snow  
Snow 0.00 in 0.40 in 8.20 in (1962)
Month to date snowfall 4.5  
Since 1 July snowfall 46.2  
Snow Depth -    
Sea Level Pressure  
Sea Level Pressure 29.78 in    
Wind  
Wind Speed 10 mph (NNW)    
Max Wind Speed 14 mph    
Max Gust Speed 20 mph    
Visibility 10 miles    
Events Snow    
T = Trace of Precipitation, MM = Missing Value Source: NWS Daily Summary

Daily Weather History Graph

Daily Weather History Graph

Search for Another Location

Airport:

Trip Planner

Search our weather history database for the weather conditions in past years. The results will help you decide how hot, cold, wet, or windy it might be!

Date:

Astronomy

Mar. 11, 2013 Rise Set
Actual Time 7:31 AM CDT 7:13 PM CDT
Civil Twilight 7:02 AM CDT 7:42 PM CDT
Nautical Twilight 6:28 AM CDT 8:16 PM CDT
Astronomical Twilight 5:53 AM CDT 8:51 PM CDT
Moon 7:04 AM CDT (3/11) 7:28 PM CDT (3/11)
Length of Visible Light 12h 40m
Length of Day
11h 41m
Waning Crescent, 0% of the Moon is Illuminated
Mar 11
Waning Crescent
Mar 11
New
Mar 19
First Quarter
Mar 27
Full
Apr 2
Last Quarter

Hourly Weather History & Observations

Time (CDT) Temp. Windchill Dew Point Humidity Pressure Visibility Wind Dir Wind Speed Gust Speed Precip Events Conditions
12:12 AM 31.5 °F 22.9 °F 26.8 °F 83% 29.85 in 3.0 mi NNE 10.4 mph 17.3 mph N/A Snow Light Snow
12:32 AM 31.1 °F 22.4 °F 27.0 °F 85% 29.84 in 3.0 mi North 10.4 mph 17.3 mph N/A Snow Light Snow
12:52 AM 30.9 °F 23.5 °F 27.1 °F 86% 29.84 in 4.0 mi North 8.1 mph - N/A Snow Light Snow
1:12 AM 30.9 °F 22.2 °F 26.4 °F 83% 29.84 in 7.0 mi North 10.4 mph - N/A   Overcast
1:32 AM 31.1 °F 22.4 °F 25.7 °F 80% 29.83 in 10.0 mi North 10.4 mph - N/A   Overcast
1:52 AM 31.1 °F 23.7 °F 25.3 °F 79% 29.83 in 10.0 mi North 8.1 mph - N/A   Overcast
2:12 AM 31.1 °F 21.4 °F 24.8 °F 77% 29.83 in 10.0 mi North 12.7 mph 16.1 mph N/A   Overcast
2:32 AM 31.1 °F 23.1 °F 24.8 °F 77% 29.82 in 10.0 mi North 9.2 mph - N/A   Overcast
2:52 AM 30.9 °F 22.2 °F 24.6 °F 77% 29.82 in 10.0 mi North 10.4 mph - N/A   Overcast
3:12 AM 30.9 °F 22.2 °F 24.8 °F 78% 29.81 in 10.0 mi North 10.4 mph 16.1 mph N/A   Overcast
3:32 AM 30.9 °F 22.2 °F 24.8 °F 78% 29.81 in 10.0 mi North 10.4 mph - N/A   Overcast
3:52 AM 30.2 °F 20.2 °F 24.3 °F 79% 29.80 in 10.0 mi NNW 12.7 mph - N/A   Overcast
4:12 AM 29.8 °F 20.3 °F 23.9 °F 79% 29.80 in 10.0 mi North 11.5 mph 16.1 mph N/A   Overcast
4:32 AM 29.7 °F 19.6 °F 23.9 °F 79% 29.79 in 10.0 mi North 12.7 mph 18.4 mph N/A   Overcast
4:52 AM 29.7 °F 20.7 °F 23.9 °F 79% 29.78 in 10.0 mi North 10.4 mph - N/A   Overcast
5:12 AM 29.3 °F 20.2 °F 23.9 °F 80% 29.78 in 10.0 mi North 10.4 mph 19.6 mph N/A   Overcast
5:32 AM 29.3 °F 19.1 °F 23.5 °F 79% 29.78 in 10.0 mi North 12.7 mph - N/A   Overcast
5:52 AM 28.9 °F 18.2 °F 23.0 °F 78% 29.78 in 10.0 mi North 13.8 mph - N/A   Overcast
6:12 AM 28.8 °F 19.0 °F 23.0 °F 79% 29.77 in 10.0 mi North 11.5 mph 18.4 mph N/A   Overcast
6:32 AM 28.4 °F 20.4 °F 23.0 °F 80% 29.77 in 10.0 mi North 8.1 mph 18.4 mph N/A   Overcast
6:52 AM 28.8 °F 19.5 °F 23.4 °F 80% 29.77 in 10.0 mi North 10.4 mph 16.1 mph N/A   Overcast
7:12 AM 28.8 °F 19.5 °F 23.4 °F 80% 29.77 in 10.0 mi North 10.4 mph - N/A   Overcast
7:32 AM 28.4 °F 19.1 °F 23.0 °F 80% 29.77 in 10.0 mi North 10.4 mph - N/A   Overcast
7:52 AM 28.4 °F 20.4 °F 23.4 °F 81% 29.78 in 10.0 mi North 8.1 mph - N/A   Overcast
8:12 AM 28.2 °F 20.2 °F 23.0 °F 81% 29.78 in 10.0 mi North 8.1 mph - N/A   Overcast
8:32 AM 28.2 °F 19.5 °F 23.0 °F 81% 29.78 in 10.0 mi North 9.2 mph - N/A   Overcast
8:52 AM 28.0 °F 18.6 °F 23.0 °F 81% 29.78 in 10.0 mi NNW 10.4 mph 17.3 mph N/A   Overcast
9:12 AM 28.2 °F 19.5 °F 23.0 °F 81% 29.78 in 10.0 mi NNW 9.2 mph - N/A   Overcast
9:32 AM 28.2 °F 18.9 °F 23.0 °F 81% 29.78 in 10.0 mi North 10.4 mph 16.1 mph N/A   Overcast
9:52 AM 28.2 °F 18.3 °F 22.8 °F 80% 29.78 in 10.0 mi NNW 11.5 mph - N/A   Overcast
10:12 AM 28.2 °F 17.2 °F 22.8 °F 80% 29.78 in 10.0 mi NNW 13.8 mph - N/A   Overcast
10:32 AM 28.2 °F 18.3 °F 23.0 °F 81% 29.78 in 10.0 mi North 11.5 mph 16.1 mph N/A   Overcast
10:52 AM 28.2 °F 18.9 °F 23.0 °F 81% 29.78 in 10.0 mi NNW 10.4 mph - N/A   Overcast
11:12 AM 28.4 °F 17.5 °F 23.4 °F 81% 29.78 in 10.0 mi NNW 13.8 mph 17.3 mph N/A   Overcast
11:32 AM 28.4 °F 18.5 °F 23.4 °F 81% 29.77 in 10.0 mi NNW 11.5 mph 16.1 mph N/A   Overcast
11:52 AM 28.4 °F 18.5 °F 23.5 °F 82% 29.77 in 10.0 mi NNW 11.5 mph - N/A   Overcast
12:12 PM 28.8 °F 19.0 °F 23.7 °F 81% 29.76 in 10.0 mi NNW 11.5 mph - N/A   Overcast
12:32 PM 28.9 °F 19.2 °F 23.7 °F 81% 29.76 in 10.0 mi NNW 11.5 mph 18.4 mph N/A   Overcast
12:52 PM 29.3 °F 19.6 °F 23.9 °F 80% 29.76 in 10.0 mi North 11.5 mph 16.1 mph N/A   Overcast
1:12 PM 29.7 °F 20.7 °F 23.9 °F 79% 29.75 in 10.0 mi North 10.4 mph 16.1 mph N/A   Overcast
1:32 PM 29.7 °F 20.7 °F 23.9 °F 79% 29.75 in 10.0 mi NNW 10.4 mph - N/A   Overcast
1:52 PM 29.7 °F 20.1 °F 23.9 °F 79% 29.74 in 10.0 mi North 11.5 mph - N/A   Overcast
2:12 PM 29.7 °F 20.7 °F 23.9 °F 79% 29.74 in 10.0 mi North 10.4 mph 16.1 mph N/A   Overcast
2:32 PM 29.8 °F 22.2 °F 23.9 °F 79% 29.73 in 10.0 mi NNW 8.1 mph - N/A   Overcast
2:52 PM 29.8 °F 20.3 °F 23.5 °F 77% 29.73 in 10.0 mi NNW 11.5 mph 16.1 mph N/A   Overcast
3:12 PM 30.2 °F 21.3 °F 23.5 °F 76% 29.73 in 10.0 mi North 10.4 mph - N/A   Overcast
3:32 PM 30.6 °F 21.8 °F 23.9 °F 76% 29.74 in 10.0 mi North 10.4 mph - N/A   Overcast
3:52 PM 31.1 °F 21.9 °F 22.6 °F 71% 29.74 in 10.0 mi NNW 11.5 mph - N/A   Overcast
4:12 PM 31.1 °F 22.4 °F 22.3 °F 70% 29.74 in 10.0 mi North 10.4 mph - N/A   Overcast
4:32 PM 30.9 °F 22.8 °F 22.5 °F 71% 29.75 in 10.0 mi NNW 9.2 mph - N/A   Overcast
4:52 PM 30.9 °F 22.8 °F 22.3 °F 70% 29.75 in 10.0 mi NNW 9.2 mph - N/A   Overcast
5:00 PM 31.1 °F 23.1 °F 22.3 °F 70% 29.75 in 10.0 mi NNW 9.2 mph - N/A   Overcast
5:25 PM 32.0 °F 23.6 °F 21.2 °F 64% 29.75 in 10.0 mi NNW 10.4 mph - N/A   Overcast
5:46 PM 31.6 °F 25.1 °F 21.0 °F 65% 29.75 in 10.0 mi North 6.9 mph - N/A   Overcast
6:11 PM 31.5 °F 24.9 °F 21.6 °F 67% 29.76 in 10.0 mi NW 6.9 mph - N/A   Overcast
6:32 PM 31.5 °F 23.5 °F 20.5 °F 64% 29.76 in 10.0 mi NW 9.2 mph - N/A   Overcast
6:52 PM 31.3 °F 24.7 °F 21.2 °F 66% 29.76 in 10.0 mi WNW 6.9 mph - N/A   Overcast
7:12 PM 31.1 °F 21.9 °F 21.2 °F 67% 29.77 in 10.0 mi WNW 11.5 mph - N/A   Overcast
7:32 PM 30.9 °F 22.8 °F 21.4 °F 68% 29.77 in 10.0 mi NW 9.2 mph 16.1 mph N/A   Overcast
7:52 PM 30.6 °F 21.8 °F 21.2 °F 68% 29.78 in 10.0 mi WNW 10.4 mph - N/A   Overcast
8:12 PM 30.2 °F 20.8 °F 20.3 °F 67% 29.78 in 10.0 mi NW 11.5 mph 17.3 mph N/A   Overcast
8:32 PM 30.0 °F 20.5 °F 20.3 °F 67% 29.78 in 10.0 mi NW 11.5 mph - N/A   Mostly Cloudy
8:52 PM 29.7 °F 22.8 °F 21.0 °F 70% 29.80 in 10.0 mi West 6.9 mph - N/A   Overcast
9:12 PM 29.3 °F 21.5 °F 21.2 °F 72% 29.80 in 10.0 mi WNW 8.1 mph - N/A   Overcast
9:32 PM 29.3 °F 20.8 °F 21.2 °F 72% 29.81 in 10.0 mi WNW 9.2 mph - N/A   Overcast
9:52 PM 28.9 °F 21.9 °F 21.2 °F 73% 29.81 in 10.0 mi WNW 6.9 mph - N/A   Scattered Clouds
10:12 PM 28.6 °F 20.7 °F 20.7 °F 72% 29.82 in 10.0 mi WNW 8.1 mph - N/A   Clear
10:32 PM 28.0 °F 20.8 °F 19.4 °F 70% 29.82 in 10.0 mi WNW 6.9 mph - N/A   Clear
10:52 PM 27.3 °F 19.1 °F 18.9 °F 70% 29.83 in 10.0 mi WNW 8.1 mph - N/A   Clear
11:12 PM 27.0 °F 21.6 °F 18.7 °F 71% 29.83 in 10.0 mi WNW 4.6 mph - N/A   Clear
11:32 PM 26.1 °F 18.4 °F 18.5 °F 73% 29.83 in 10.0 mi West 6.9 mph - N/A   Clear
11:52 PM 25.5 °F 16.9 °F 18.7 °F 75% 29.84 in 10.0 mi West 8.1 mph - N/A   Clear